FW1494 Weather Reports


Display with metric or nautical units.
time (UTC)temp
F
wind
direction
speed
MPH
gust
MPH
rain 1hr
in
rain 24hr
in
rain mn
in
humidity
%
barometer
mb
20181215143143 59 84 0.0 0.0 0.00 0.01 0.00 93 1022.2
20181215142641 60 84 0.0 0.0 0.00 0.01 0.00 92 1022.2
20181215142139 60 84 0.0 0.0 0.00 0.01 0.00 92 1022.2
20181215141638 61 84 0.0 0.0 0.00 0.01 0.00 92 1022.2
20181215141134 62 84 0.0 0.0 0.00 0.01 0.00 93 1022.2
20181215140633 62 84 0.0 0.0 0.00 0.01 0.00 93 1022.1
20181215140131 62 84 0.0 0.0 0.00 0.01 0.00 93 1022.1
20181215135627 62 83 0.0 2.0 0.00 0.01 0.00 92 1022.2
20181215135127 62 83 1.0 2.0 0.00 0.01 0.00 93 1022.1
20181215134625 62 83 1.0 2.0 0.00 0.01 0.00 93 1022.1
20181215134123 62 82 0.0 1.0 0.00 0.01 0.00 93 1022.1
20181215133621 62 82 0.0 1.0 0.00 0.01 0.00 93 1022.1
20181215133121 61 82 0.0 1.0 0.00 0.01 0.00 92 1022.2
20181215132621 62 82 0.0 1.0 0.00 0.01 0.00 92 1022.3
20181215132119 62 82 0.0 1.0 0.00 0.02 0.00 92 1022.3
20181215131618 62 82 1.0 2.0 0.00 0.02 0.00 93 1022.3
20181215131114 63 82 1.0 2.0 0.00 0.02 0.00 92 1022.4
20181215130614 63 82 1.0 2.0 0.00 0.02 0.00 92 1022.4
20181215130111 63 82 1.0 2.0 0.00 0.02 0.00 93 1022.5
20181215125609 63 88 1.0 2.0 0.00 0.02 0.00 93 1022.6
20181215125107 63 88 1.0 2.0 0.00 0.02 0.00 93 1022.6
20181215124605 63 88 1.0 2.0 0.00 0.02 0.00 93 1022.7
20181215124103 63 88 1.0 2.0 0.00 0.02 0.00 93 1022.8
20181215123603 62 88 1.0 2.0 0.00 0.02 0.00 93 1022.8
20181215123103 62 88 1.0 1.0 0.00 0.02 0.00 92 1022.8
20181215122603 62 88 1.0 2.0 0.00 0.02 0.00 92 1022.8
20181215122103 63 88 1.0 2.0 0.00 0.02 0.00 92 1022.8
20181215121601 63 88 1.0 4.0 0.00 0.02 0.00 92 1022.8
20181215121059 63 88 2.0 4.0 0.00 0.02 0.00 93 1022.7
20181215120558 63 88 2.0 4.0 0.00 0.02 0.00 92 1022.7
20181215120055 63 88 2.0 4.0 0.00 0.02 0.00 92 1022.8
20181215115553 63 88 2.0 5.0 0.00 0.02 0.00 92 1022.7
20181215115053 63 88 3.0 5.0 0.00 0.02 0.00 92 1022.8
20181215114554 63 75 3.0 5.0 0.00 0.02 0.00 92 1022.6
20181215114051 63 78 3.0 5.0 0.00 0.02 0.00 92 1022.7
20181215113550 64 32 4.0 8.0 0.00 0.02 0.00 92 1022.8
20181215113047 64 44 4.0 8.0 0.00 0.02 0.00 93 1022.7
20181215112545 64 37 3.0 6.0 0.00 0.02 0.00 92 1022.7
20181215112043 64 55 3.0 7.0 0.00 0.02 0.00 92 1022.7
20181215111541 63 67 2.0 7.0 0.00 0.02 0.00 93 1022.7
20181215111041 63 53 1.0 3.0 0.00 0.02 0.00 92 1022.7
20181215110539 63 55 2.0 6.0 0.00 0.02 0.00 92 1022.6
20181215110040 63 55 4.0 6.0 0.00 0.02 0.00 92 1022.6
20181215105538 63 78 4.0 5.0 0.00 0.02 0.02 92 1022.6
20181215105037 63 85 4.0 5.0 0.00 0.02 0.02 92 1022.6
20181215104537 64 84 3.0 5.0 0.00 0.02 0.02 92 1022.6
20181215104037 64 82 3.0 5.0 0.00 0.02 0.02 92 1022.5
20181215103535 64 85 2.0 5.0 0.00 0.02 0.02 92 1022.5
20181215103035 63 83 3.0 5.0 0.00 0.02 0.02 92 1022.4
20181215102534 63 86 3.0 5.0 0.00 0.02 0.02 92 1022.3
20181215102034 63 74 3.0 5.0 0.00 0.02 0.02 92 1022.4
20181215101532 63 73 3.0 5.0 0.00 0.02 0.02 92 1022.4
20181215101030 64 68 3.0 5.0 0.00 0.02 0.02 92 1022.3
20181215100531 64 76 3.0 4.0 0.00 0.02 0.02 92 1022.3
20181215100029 64 74 4.0 5.0 0.00 0.02 0.02 92 1022.2
20181215095528 64 70 3.0 5.0 0.00 0.02 0.02 92 1022.3
20181215095029 64 73 2.0 4.0 0.00 0.02 0.02 91 1022.1
20181215094528 64 33 2.0 3.0 0.00 0.02 0.02 92 1022.1
20181215094027 64 33 1.0 2.0 0.00 0.02 0.02 91 1021.9
20181215093525 64 33 1.0 4.0 0.00 0.02 0.02 91 1021.9
20181215093022 64 33 1.0 4.0 0.00 0.02 0.02 91 1021.9
20181215092521 64 33 2.0 4.0 0.00 0.02 0.02 91 1022.0
20181215092019 64 33 1.0 4.0 0.00 0.02 0.02 91 1021.8
20181215091016 64 32 1.0 4.0 0.00 0.02 0.02 91 1021.7
20181215090518 64 32 2.0 4.0 0.00 0.02 0.02 91 1021.7
20181215090015 64 53 3.0 5.0 0.00 0.02 0.02 91 1021.7
20181215085516 64 62 4.0 5.0 0.00 0.02 0.02 91 1021.7
20181215085014 64 57 4.0 5.0 0.00 0.02 0.02 91 1021.6
20181215084512 65 64 4.0 5.0 0.00 0.02 0.02 90 1021.6
20181215084011 65 76 3.0 5.0 0.00 0.02 0.02 90 1021.6
20181215083509 65 82 3.0 5.0 0.00 0.02 0.02 90 1021.6
20181215083007 65 82 2.0 5.0 0.00 0.02 0.02 90 1021.5
20181215082505 65 80 3.0 4.0 0.00 0.02 0.02 90 1021.5
20181215082003 65 80 3.0 4.0 0.00 0.02 0.02 90 1021.4
20181215081503 65 80 2.0 5.0 0.00 0.02 0.02 90 1021.4
20181215081002 65 80 3.0 5.0 0.00 0.02 0.02 90 1021.3
20181215080500 65 71 4.0 5.0 0.00 0.02 0.02 89 1021.2
20181215080000 65 57 4.0 5.0 0.00 0.02 0.02 89 1021.1
20181215075500 65 81 4.0 5.0 0.00 0.02 0.02 89 1021.0
20181215074959 65 92 4.0 5.0 0.00 0.02 0.02 89 1021.1
20181215074457 66 82 4.0 5.0 0.00 0.02 0.02 88 1021.0
20181215073954 66 87 4.0 5.0 0.00 0.02 0.02 88 1021.0
20181215073453 66 80 3.0 5.0 0.00 0.02 0.02 87 1020.9
20181215072954 66 58 2.0 5.0 0.00 0.02 0.02 86 1020.8
20181215072454 67 46 2.0 4.0 0.00 0.02 0.02 86 1020.8
20181215071952 67 46 3.0 5.0 0.00 0.02 0.02 86 1020.8
20181215071452 67 36 3.0 6.0 0.00 0.02 0.02 85 1020.7
20181215070952 68 55 3.0 6.0 0.00 0.02 0.02 85 1020.6
20181215070449 68 55 3.0 6.0 0.00 0.02 0.02 84 1020.5
20181215065947 68 43 4.0 6.0 0.00 0.02 0.02 84 1020.4
20181215065445 68 31 5.0 7.0 0.00 0.02 0.02 83 1020.4
20181215064944 69 55 5.0 8.0 0.00 0.02 0.02 83 1020.3
20181215064441 69 61 5.0 8.0 0.00 0.02 0.02 81 1020.4
20181215063939 69 40 4.0 8.0 0.00 0.02 0.02 81 1020.4
20181215063437 69 55 4.0 6.0 0.00 0.02 0.02 80 1020.3
20181215062936 69 46 3.0 6.0 0.00 0.02 0.02 80 1020.2
20181215062433 69 11 4.0 6.0 0.00 0.02 0.02 80 1020.2
20181215061930 70 5 4.0 8.0 0.00 0.02 0.02 80 1020.2
20181215061428 70 59 5.0 8.0 0.00 0.02 0.02 80 1020.3
20181215060927 70 62 5.0 8.0 0.00 0.02 0.02 80 1020.2
20181215060425 70 0 5.0 8.0 0.00 0.02 0.02 79 1019.9
20181215055914 70 20 5.0 8.0 0.00 0.02 0.02 78 1019.9
20181215055412 70 28 5.0 8.0 0.00 0.02 0.02 78 1019.9
20181215054911 70 355 5.0 9.0 0.00 0.02 0.02 78 1019.8
20181215054409 70 40 6.0 9.0 0.00 0.02 0.02 78 1019.8
20181215053906 70 69 6.0 10.0 0.00 0.02 0.02 77 1019.7
20181215053405 70 49 5.0 10.0 0.00 0.02 0.02 76 1019.7
20181215052905 71 36 5.0 9.0 0.00 0.02 0.02 76 1019.7
20181215052400 71 23 6.0 11.0 0.00 0.02 0.02 77 1019.6
20181215051858 71 19 6.0 11.0 0.00 0.02 0.02 77 1019.6
20181215051356 71 51 6.0 10.0 0.00 0.02 0.02 76 1019.6
20181215050854 71 355 6.0 10.0 0.00 0.02 0.02 78 1019.6
20181215050352 70 30 7.0 10.0 0.00 0.02 0.02 79 1019.7
20181215045851 70 44 7.0 10.0 0.00 0.02 0.02 79 1019.7
20181215045351 70 32 6.0 11.0 0.00 0.02 0.02 80 1019.7
20181215044848 70 23 6.0 11.0 0.00 0.02 0.02 78 1019.6
20181215044345 71 42 6.0 10.0 0.00 0.02 0.02 77 1019.7
20181215043843 71 355 6.0 10.0 0.00 0.02 0.02 78 1019.7
20181215043340 71 34 6.0 9.0 0.00 0.02 0.02 78 1019.6
20181215042839 71 59 6.0 10.0 0.00 0.02 0.02 79 1019.5
20181215042337 71 341 7.0 11.0 0.00 0.02 0.02 79 1019.6
20181215041836 71 13 7.0 11.0 0.00 0.02 0.02 80 1019.6
20181215041338 70 325 6.0 11.0 0.00 0.02 0.02 82 1019.7
20181215040836 69 19 6.0 11.0 0.00 0.02 0.02 84 1019.7
20181215040335 69 77 7.0 11.0 0.00 0.02 0.02 84 1019.6
20181215035832 69 108 7.0 11.0 0.00 0.02 0.02 83 1019.7
20181215035332 69 88 8.0 12.0 0.00 0.02 0.02 82 1019.7
20181215034832 69 78 8.0 12.0 0.00 0.02 0.02 82 1019.8
20181215034331 70 98 8.0 13.0 0.00 0.02 0.02 82 1019.8
20181215033829 71 60 9.0 13.0 0.00 0.02 0.02 80 1019.8
20181215033326 71 105 9.0 14.0 0.00 0.02 0.02 81 1019.8
20181215032824 71 98 9.0 14.0 0.00 0.02 0.02 81 1019.7
20181215032322 71 98 8.0 14.0 0.00 0.02 0.02 79 1019.6
20181215031821 71 103 8.0 14.0 0.00 0.02 0.02 81 1019.6
20181215031320 71 88 8.0 14.0 0.00 0.02 0.02 81 1019.6
20181215030820 70 65 9.0 12.0 0.00 0.02 0.02 83 1019.6
20181215030318 69 115 9.0 14.0 0.00 0.02 0.02 82 1019.7
20181215025816 69 98 8.0 14.0 0.00 0.02 0.02 80 1019.7
20181215025314 70 109 8.0 14.0 0.00 0.02 0.02 81 1019.7
20181215024812 70 88 7.0 13.0 0.00 0.02 0.02 81 1019.8
20181215024312 70 96 6.0 10.0 0.00 0.02 0.02 84 1019.7
20181215023812 69 100 6.0 9.0 0.00 0.02 0.02 81 1019.7
20181215023312 69 73 6.0 9.0 0.00 0.02 0.02 82 1019.9
20181215022812 69 109 5.0 9.0 0.00 0.02 0.02 82 1020.0
20181215022309 69 109 3.0 8.0 0.00 0.02 0.02 81 1020.0
20181215021808 68 153 3.0 5.0 0.00 0.02 0.02 79 1020.3
20181215021306 68 263 4.0 7.0 0.00 0.02 0.02 79 1020.3
20181215020805 68 223 4.0 7.0 0.00 0.02 0.02 78 1020.5
20181215020303 69 215 3.0 7.0 0.00 0.02 0.02 76 1020.6
20181215015801 69 298 4.0 8.0 0.00 0.02 0.02 79 1020.6
20181215015259 69 13 6.0 9.0 0.00 0.02 0.02 78 1020.6
20181215014756 68 5 5.0 9.0 0.00 0.02 0.02 78 1020.6
20181215014255 68 340 5.0 10.0 0.00 0.02 0.02 78 1020.6
20181215013753 69 340 4.0 10.0 0.00 0.02 0.02 77 1020.7
20181215013250 69 283 4.0 9.0 0.00 0.02 0.02 78 1020.7
20181215012748 69 355 5.0 10.0 0.00 0.02 0.02 80 1020.7
20181215012246 69 19 6.0 10.0 0.00 0.02 0.02 82 1020.7
20181215011744 69 70 6.0 11.0 0.00 0.02 0.02 82 1020.7
20181215011244 69 71 6.0 11.0 0.00 0.02 0.02 82 1020.6
20181215010744 69 94 6.0 10.0 0.00 0.02 0.02 81 1020.6
20181215010243 69 94 7.0 12.0 0.00 0.02 0.02 81 1020.5
20181215005742 69 81 8.0 15.0 0.00 0.02 0.02 81 1020.3
20181215005240 68 108 9.0 15.0 0.00 0.02 0.02 82 1020.3
20181215004738 69 98 10.0 15.0 0.00 0.02 0.02 81 1020.4
20181215004238 68 78 10.0 15.0 0.00 0.02 0.02 83 1020.4
20181215003736 68 97 8.0 14.0 0.00 0.02 0.02 81 1020.2
20181215003236 69 67 8.0 14.0 0.00 0.02 0.02 81 1020.3
20181215002733 70 77 9.0 15.0 0.00 0.02 0.02 80 1020.3
20181215002235 70 95 10.0 18.0 0.00 0.02 0.02 80 1020.3
20181215001733 70 67 10.0 18.0 0.00 0.02 0.02 82 1020.2
20181215001230 71 74 9.0 15.0 0.00 0.02 0.02 81 1020.3
20181215000731 71 78 9.0 14.0 0.00 0.02 0.02 82 1020.2
20181215000231 71 77 9.0 14.0 0.00 0.02 0.02 83 1020.0
20181214235727 70 96 10.0 21.0 0.00 0.02 0.02 82 1020.2
20181214235227 69 91 11.0 21.0 0.00 0.02 0.02 82 1019.9
20181214234726 70 102 11.0 18.0 0.00 0.02 0.02 83 1019.9
20181214234222 70 84 10.0 18.0 0.00 0.02 0.02 83 1020.0
20181214233722 70 71 10.0 15.0 0.00 0.02 0.02 82 1019.9
20181214233221 70 99 9.0 15.0 0.00 0.02 0.02 82 1020.0
20181214232721 70 70 9.0 16.0 0.00 0.02 0.02 83 1020.0
20181214232220 70 128 9.0 16.0 0.00 0.02 0.02 83 1020.3
20181214231720 69 67 9.0 14.0 0.00 0.02 0.02 81 1020.3
20181214231219 69 92 10.0 15.0 0.00 0.02 0.02 83 1020.3
20181214230718 69 97 9.0 15.0 0.00 0.02 0.02 82 1020.4
20181214230217 70 92 9.0 14.0 0.00 0.02 0.02 84 1020.4
20181214225718 69 88 9.0 14.0 0.00 0.02 0.02 83 1020.5
20181214225217 69 55 8.0 13.0 0.00 0.02 0.02 84 1020.5
20181214224718 69 69 8.0 13.0 0.00 0.02 0.02 85 1020.4
20181214224218 68 89 7.0 13.0 0.00 0.02 0.02 84 1020.3
20181214223718 69 53 7.0 12.0 0.00 0.02 0.02 84 1020.4
20181214223217 68 98 8.0 13.0 0.00 0.02 0.02 82 1020.3
20181214222717 69 76 9.0 14.0 0.00 0.02 0.02 79 1020.4
20181214222217 70 49 9.0 14.0 0.00 0.02 0.02 80 1020.3
20181214221716 70 42 8.0 14.0 0.00 0.02 0.02 80 1020.4
20181214221216 70 355 8.0 15.0 0.00 0.02 0.02 79 1020.3
20181214220716 70 55 7.0 15.0 0.00 0.02 0.02 80 1020.2
20181214220216 69 332 7.0 12.0 0.00 0.02 0.02 80 1020.3
20181214215716 69 0 7.0 11.0 0.00 0.02 0.02 81 1020.3
20181214215215 69 42 6.0 11.0 0.00 0.02 0.02 81 1020.3
20181214214713 69 328 6.0 11.0 0.00 0.02 0.02 82 1020.3
20181214214212 69 5 7.0 12.0 0.00 0.02 0.02 81 1020.3
20181214213712 69 344 7.0 13.0 0.00 0.02 0.02 82 1020.2
20181214213212 69 26 6.0 13.0 0.00 0.02 0.02 81 1020.2
20181214212710 69 51 6.0 11.0 0.00 0.02 0.02 82 1020.3
20181214212209 69 39 7.0 12.0 0.00 0.02 0.02 83 1020.2
20181214211709 69 24 7.0 12.0 0.00 0.02 0.02 83 1020.2
20181214211210 69 17 7.0 11.0 0.00 0.02 0.02 83 1020.3
20181214210709 68 22 7.0 11.0 0.00 0.02 0.02 85 1020.2
20181214210209 67 47 6.0 11.0 0.00 0.02 0.02 83 1020.0
20181214205706 68 90 6.0 10.0 0.00 0.02 0.02 85 1019.9
20181214205203 69 115 5.0 10.0 0.00 0.02 0.02 84 1019.9
20181214204702 68 99 6.0 10.0 0.00 0.02 0.02 86 1020.0
20181214204201 68 81 7.0 10.0 0.00 0.02 0.02 85 1020.2
20181214203702 68 67 7.0 12.0 0.01 0.02 0.02 87 1020.0
20181214203201 67 111 8.0 12.0 0.01 0.02 0.02 86 1020.2
20181214202701 67 63 8.0 12.0 0.01 0.02 0.02 86 1020.2
20181214202202 67 93 8.0 12.0 0.01 0.02 0.02 86 1020.2
20181214201701 67 90 8.0 12.0 0.01 0.02 0.02 86 1020.2
20181214201202 67 59 7.0 12.0 0.01 0.02 0.02 87 1020.2
20181214200700 67 71 6.0 10.0 0.01 0.02 0.02 89 1020.3
20181214200159 66 53 6.0 9.0 0.01 0.02 0.02 89 1020.2
20181214195700 66 66 7.0 12.0 0.01 0.02 0.02 90 1020.2
20181214195200 65 51 7.0 12.0 0.01 0.02 0.02 90 1020.0
20181214194700 65 78 7.0 12.0 0.01 0.02 0.02 90 1019.9
20181214194200 65 69 7.0 10.0 0.01 0.02 0.02 91 1020.2
20181214193659 65 72 6.0 14.0 0.00 0.02 0.02 91 1019.9
20181214193159 65 77 6.0 14.0 0.00 0.02 0.02 92 1020.0
20181214192658 64 78 6.0 11.0 0.00 0.02 0.02 92 1019.8
20181214192156 63 106 5.0 11.0 0.00 0.02 0.02 92 1019.7
20181214191654 63 98 4.0 9.0 0.00 0.02 0.02 92 1019.7
20181214191151 62 80 5.0 9.0 0.00 0.02 0.02 92 1019.6
20181214190649 62 92 5.0 10.0 0.00 0.02 0.02 92 1019.6
20181214190148 62 71 5.0 10.0 0.00 0.02 0.02 92 1019.4
20181214185645 62 75 5.0 9.0 0.00 0.02 0.02 92 1019.6
20181214185143 62 86 5.0 9.0 0.00 0.02 0.02 92 1019.4
20181214184641 62 42 5.0 9.0 0.00 0.02 0.02 92 1019.4
20181214184140 61 20 5.0 8.0 0.00 0.02 0.02 92 1019.4
20181214183637 61 50 5.0 7.0 0.00 0.02 0.02 93 1019.4
20181214183136 61 84 5.0 9.0 0.00 0.02 0.02 92 1019.2
20181214182634 61 68 5.0 9.0 0.00 0.02 0.02 93 1019.3
20181214182131 61 88 5.0 8.0 0.00 0.02 0.02 93 1019.3
20181214181630 61 79 5.0 7.0 0.00 0.02 0.02 92 1019.0
20181214181128 61 82 5.0 7.0 0.00 0.02 0.02 92 1018.9
20181214180626 61 98 6.0 12.0 0.00 0.02 0.02 93 1019.0
20181214180123 61 100 6.0 12.0 0.00 0.02 0.02 93 1018.8
20181214175621 61 69 6.0 10.0 0.00 0.02 0.02 93 1018.6
20181214175120 61 67 6.0 10.0 0.00 0.02 0.02 93 1018.7
20181214174619 61 86 5.0 8.0 0.00 0.02 0.02 93 1018.7
20181214174120 61 86 4.0 7.0 0.00 0.02 0.02 93 1018.8
20181214173619 61 144 5.0 8.0 0.00 0.02 0.02 93 1018.5
20181214173119 61 76 5.0 8.0 0.00 0.02 0.02 93 1018.6
20181214172618 60 87 5.0 8.0 0.00 0.02 0.02 93 1018.6
20181214172117 60 95 5.0 9.0 0.00 0.02 0.02 93 1018.6
20181214171619 60 94 5.0 9.0 0.00 0.02 0.02 93 1018.5
20181214171116 60 91 5.0 8.0 0.00 0.02 0.02 93 1018.5
20181214170614 60 74 5.0 8.0 0.00 0.02 0.02 93 1018.7
20181214170103 59 82 4.0 7.0 0.00 0.02 0.02 93 1018.5
20181214165603 59 88 5.0 7.0 0.00 0.02 0.02 92 1018.4
20181214165101 60 85 5.0 7.0 0.00 0.02 0.02 92 1018.4
20181214164557 60 104 5.0 7.0 0.00 0.02 0.02 93 1018.3
20181214164056 60 74 5.0 10.0 0.00 0.02 0.02 93 1018.2
20181214163555 60 90 5.0 10.0 0.00 0.02 0.02 93 1018.2
20181214163044 59 102 4.0 6.0 0.00 0.02 0.02 93 1018.1
20181214162544 60 94 4.0 6.0 0.00 0.02 0.02 93 1018.2
20181214162039 60 84 4.0 7.0 0.00 0.02 0.02 93 1018.1
20181214161539 60 71 4.0 8.0 0.00 0.02 0.02 93 1018.0
20181214161037 60 112 4.0 6.0 0.00 0.02 0.02 93 1018.0
20181214160535 60 98 4.0 8.0 0.00 0.02 0.02 93 1018.1
20181214160033 60 90 5.0 8.0 0.00 0.02 0.02 93 1018.2
20181214155520 60 86 5.0 8.0 0.00 0.02 0.02 93 1018.2
20181214155011 60 98 4.0 8.0 0.00 0.02 0.02 93 1018.1
20181214154507 59 119 2.0 7.0 0.00 0.02 0.02 93 1018.2
20181214154007 59 152 0.0 4.0 0.00 0.02 0.02 93 1018.3
20181214153505 59 161 0.0 1.0 0.00 0.02 0.02 93 1018.3
20181214153003 59 161 1.0 4.0 0.00 0.02 0.02 93 1018.2
20181214151959 59 161 1.0 2.0 0.00 0.02 0.02 93 1018.1
20181214151457 59 161 1.0 4.0 0.00 0.02 0.02 93 1018.2
20181214150955 59 161 1.0 3.0 0.00 0.02 0.02 93 1018.2
20181214150451 60 103 1.0 4.0 0.00 0.02 0.02 93 1018.1
20181214145952 60 103 0.0 3.0 0.00 0.02 0.02 93 1018.1
20181214145450 59 175 0.0 0.0 0.00 0.02 0.02 93 1018.1
20181214144947 60 175 0.0 0.0 0.00 0.02 0.02 93 1018.0
20181214144445 60 175 0.0 0.0 0.00 0.02 0.02 93 1018.1
20181214143942 60 175 0.0 0.0 0.00 0.02 0.02 93 1018.1